Погода в Шахтере

Россия / Кемеровская область (Кузбасс)     55°48′51″N   85°07′42″E
темп.,
°C
ветер,
м/с
пор.,
м/с
влажн.,
%
обл.,
%
осадки,
мм/ч
давл.,
гПа
погр.,
м
13 мая, чт
чт1301:00+12зсз114787 0.0 101311
04:00+10юв11527 0.0 101310
07:00+12ююв115385 0.0 101342
10:00+17юз233999 0.0 1013565
13:00+20юз3530100 0.0 10112834
16:00+21зюз452495 0.0 10113091
19:00+19сз2434100 0.0 1011467
22:00+14ссз51053100 0.0 1012334
14 мая, пт
пт1401:00+11с4107393 0.0 1014376
04:00+9сз497835 0.0 1015292
07:00+8ссз5106827 0.0 1016398
10:00+11сз786271 0.0 10181201
13:00+13сз793599 0.0 10191563
16:00+14ссз7927100 0.0 10191717
19:00+13сз5832100 0.0 10211562
22:00+9зсз2338100 0.0 102262
15 мая, сб
сб1501:00+9ююз2257100 0.1 102280
04:00+10ююз6124794 0.0 1021411
07:00+11юз71543100 0.0 1020494
10:00+13зюз7144991 0.1 1019692
13:00+18зюз81148100 0.1 1018946
16:00+22зюз71042100 0.0 10161609
19:00+21зюз71148100 0.0 10151087
22:00+17юз7156288 0.5 1014458
16 мая, вс
вс1601:00+13ю468393 2.4 101499
04:00+12юз389398 0.0 1013162
07:00+13юз1182100 0.0 101388
10:00+16с1178100 0.1 1014458
13:00+16сз018369 0.7 1014298
16:00+17с4479100 1.9 1014607
19:00+14ссв468293 1.9 1015457
22:00+10св229478 0.0 101724
17 мая, пн
пн1701:00+11юв118893 0.0 101621
04:00+10зюз119166 0.0 101613
07:00+12юз268478 0.0 1016248
10:00+17зюз585899 0.0 1014844
13:00+22зюз91249100 0.0 10121399
16:00+27з8143578 0.0 10093250
19:00+24зюз494688 0.0 1008375
22:00+19зюз51255100 0.0 1007216